Regional Weather Roundup
Issued by NWS

Home | Current Version | Previous Version | Text Only | Print | Product List | Glossary Off
Versions: 1 2 3 4 5 6 7 8 9 10 11 12 13 14 15 16 17 18 19 20 21 22 23 24 25 26 27 28 29 30 31 32 33 34 35 36 37 38 39 40 41 42 43 44 45 46 47 48 49 50

000
ASUS43 KDTX 280701
RWRMI
MICHIGAN HOURLY REGIONAL WEATHER ROUNDUP
NATIONAL WEATHER SERVICE DETROIT/PONTIAC MI
300 AM EDT THU AUG 28 2014

NOTE: "FAIR" INDICATES FEW OR NO CLOUDS BELOW 12,000 FEET WITH NO
SIGNIFICANT WEATHER AND/OR OBSTRUCTION TO VISIBILITY.

MIZ047>049-052>055-059>063-066>070-074>076-081>083-280800-
SOUTHEAST LOWER MICHIGAN

CITY           SKY/WX    TMP DP  RH WIND       PRES   REMARKS
ADRIAN         MOCLDY    60  58  92 E6        30.12F
ALMA           CLEAR     53  49  84 CALM      30.17R
ANN ARBOR      PTCLDY    62  57  83 CALM      30.12F
BAD AXE        CLEAR     50  50 100 CALM      30.15S
CARO           CLEAR     53  52  97 CALM      30.14S
DETROIT CITY   CLOUDY    65  55  70 NE6       30.13S
DETROIT        MOCLDY    64  56  75 CALM      30.12F
FLINT          PTCLDY    60  52  74 NE5       30.14F
GROSSE ILE     MOCLDY    63  55  77 NE5       30.11S
HILLSDALE      CLEAR     60  60  99 N3        30.12S
HOWELL         CLOUDY    60  57  91 NE5       30.14S

CITY           SKY/WX    TMP DP  RH WIND       PRES   REMARKS
JACKSON        MOCLDY    58  55  90 N5        30.13S
LAMBERTVILLE   CLEAR     63  59  88 NE3       30.11S
LANSING        CLOUDY    59  51  75 N6        30.15S
LAPEER         FAIR      55  53  94 CALM      30.15S
MASON          MOCLDY    59  54  84 N3        30.14S
MONROE         CLEAR     61  55  82 NE5       30.10S
MT. CLEMENS    CLEAR     59  54  84 N6        30.12S
PONTIAC        MOCLDY    60  54  80 CALM      30.13S
PORT HOPE        N/A     60  49  66 CALM      30.12F
PORT HURON     MOCLDY    54  54 100 CALM      30.13S
TRI CITIES     PTCLDY    55  50  83 N8        30.16F
TROY           CLOUDY    63  56  79 NE3       30.15S
SAGINAW HB     PTCLDY    55  55 100 CALM      30.14F
$$
MIZ043>046-050>051-056>058-064>065-071>073-077>080-280800-
SOUTHWEST LOWER MICHIGAN

CITY           SKY/WX    TMP DP  RH WIND       PRES   REMARKS
BATTLE CREEK   CLEAR     60  52  74 NE7       30.14F
BENTON HARBOR  CLEAR     59  54  83 NE3       30.14R
BIG RAPIDS     CLEAR     50  49  97 NW3       30.17S
COLDWATER      CLEAR     62  58  87 NE7       30.13R
FREMONT        FAIR      53  49  86 NE5       30.17S
HOLLAND        CLEAR     58  54  86 CALM      30.16S
GRAND RAPIDS   CLEAR     57  56  96 NE6       30.16S
IONIA          PTSUNNY   56  51  85 NE3       30.15S
KALAMAZOO      CLEAR     61  52  72 NE7       30.14S
LUDINGTON      CLEAR     55  52  90 CALM      30.17R
MARSHALL       CLEAR     58  53  83 CALM      30.13S
MOUNT PLEASANT CLEAR     48  47  96 CALM      30.16F FOG
MUSKEGON       CLEAR     57  52  83 NE7       30.16S
SOUTH HAVEN    CLEAR     60  56  87 NE5       30.14S
$$
MIZ016>042-280800-
NORTHERN LOWER MICHIGAN

CITY           SKY/WX    TMP DP  RH WIND       PRES   REMARKS
ALPENA         CLEAR     48  45  89 W5        30.15S
BEAVER ISLAND  CLOUDY    46  45  97 CALM      30.18S
BELLAIRE       CLEAR     45  44  96 CALM      30.18S FOG
CADILLAC       CLEAR     42  42 100 CALM      30.18R
CHARLEVOIX     CLEAR     50  48  92 CALM      30.20S
FRANKFORT      CLEAR     48  45  89 CALM      30.18S
GAYLORD        CLEAR     46  43  89 CALM      30.17F
GRAYLING       CLEAR     43  43 100 CALM      30.19R
HARBOR SPRINGS CLEAR     47  43  87 CALM      30.18S
HOUGHTON LAKE  CLEAR     45  44  97 N3        30.18S
MANISTEE       CLEAR     48  45  87 CALM      30.18S
OSCODA         CLEAR     47  46  93 NW3       30.14S
PELLSTON       CLEAR     40  39  97 CALM      30.18S
TRAVERSE CITY  CLEAR     50  46  86 CALM      30.17S
$$
MIZ007>008-015-280800-
EASTERN UPPER MICHIGAN

CITY           SKY/WX    TMP DP  RH WIND       PRES   REMARKS
KINROSS        CLEAR     45  45 100 W5        30.17R
MACKINAC ISLAN CLEAR     49  47  93 NW6       30.16S
NEWBERRY       CLEAR     39  38  97 W5        30.18S
S. S. MARIE    CLEAR     49  46  90 S7        30.16R
$$
MIZ004>006-011>014-085-280800-
CENTRAL UPPER MICHIGAN

CITY           SKY/WX    TMP DP  RH WIND       PRES   REMARKS
MANISTIQUE     MOCLDY    45  44  95 CALM      30.18F
ESCANABA       MOCLDY    52  46  82 CALM      30.18S
MENOMINEE      CLOUDY    63  54  72 SE9       30.17R
SAWYER-GWINN   CLEAR     44  40  87 CALM      30.19R
$$
MIZ001>003-009>011-084-280800-
WESTERN UPPER MICHIGAN

CITY           SKY/WX    TMP DP  RH WIND       PRES   REMARKS
IRON MOUNTAIN  CLOUDY    53  50  89 CALM      30.18S
HOUGHTON       MOCLDY    47  43  86 CALM      30.16S
COPPER HARBOR    N/A     52  44  74 W5        30.16R
$$

ABBREVIATIONS USED IN REMARKS
   TC - TEMPERATURE IN CELSIUS
  WCI - WIND CHILL INDEX
   HX - HEAT INDEX
  VSB - VISIBILITY



USA.gov is the U.S. government's official web portal to all federal, state and local government web resources and services.